Simultaneous Nadir Overpasses (SNOs) Predictions

Prediction of SNOs between LANDSAT-8 and NOAA-19 Satellite Orbit:

Table of predicted SNOs for the next 14.0 days since TLE Epoch: 9/24/2022
Index Date (LANDSAT-8) Time (LANDSAT-8) Lat,Lon (LANDSAT-8) SZA (LANDSAT-8 ) Date (NOAA-19) Time (NOAA-19) Lat,Lon (NOAA-19) SZA (NOAA-19 ) Distance(km) Time Diff (sec)
1 09/24/2022 15:15:45 -80.87, 167.58 96.56 09/24/2022 15:15:48 -80.86, 167.46 96.58 2.40 3
2 09/26/2022 20:49:29 80.86, -95.99 84.31 09/26/2022 20:48:40 80.86, -96.01 84.29 0.56 49
3 09/26/2022 21:38:56 -80.86, 71.61 95.69 09/26/2022 21:39:38 -80.85, 71.72 95.66 1.85 42
4 09/29/2022 03:12:39 80.87, 168.31 85.22 09/29/2022 03:12:30 80.86, 168.40 85.22 1.87 9
5 10/01/2022 08:46:23 -80.87, -95.11 93.90 10/01/2022 08:45:20 -80.86, -95.05 93.92 1.14 63
6 10/01/2022 09:35:49 80.87, 72.55 86.12 10/01/2022 09:36:21 80.86, 72.39 86.11 2.83 32
7 10/03/2022 15:09:33 -80.87, 169.09 93.01 10/03/2022 15:09:10 -80.86, 169.08 93.03 0.44 23
8 10/03/2022 15:58:59 80.87, -23.27 87.01 10/03/2022 16:00:11 80.86, -23.29 87.03 1.04 72
9 10/05/2022 20:43:16 80.86, -94.45 87.85 10/05/2022 20:42:04 80.87, -94.54 87.82 2.15 72
10 10/05/2022 21:32:43 -80.86, 73.23 92.14 10/05/2022 21:33:00 -80.86, 73.16 92.13 1.28 17
11 10/08/2022 03:06:25 80.87, 169.96 88.76 10/08/2022 03:05:53 80.86, 170.05 88.75 1.86 32



Historial Predications of SNOs between LANDSAT-8 and NOAA-19
